TimeCDT,TemperatureF,Dew PointF,Humidity,Sea Level PressureIn,VisibilityMPH,Wind Direction,Wind SpeedMPH,Gust SpeedMPH,PrecipitationIn,Events,Conditions,WindDirDegrees,DateUTC
12:15 AM,33.8,33.8,100,29.77,3.0,SE,4.6,-,N/A,Rain,Light Rain,140,2013-03-10 06:15:00
12:35 AM,33.8,33.8,100,29.76,2.0,SE,3.5,-,N/A,Rain,Light Rain,130,2013-03-10 06:35:00
12:55 AM,33.8,33.8,100,29.76,1.5,SE,4.6,-,N/A,,Overcast,140,2013-03-10 06:55:00
1:15 AM,33.8,33.8,100,29.77,1.0,SSE,5.8,-,N/A,,Overcast,150,2013-03-10 07:15:00
1:35 AM,33.8,33.8,100,29.77,0.8,SSE,5.8,-,N/A,,Overcast,150,2013-03-10 07:35:00
3:15 AM,33.8,33.8,100,29.75,0.5,SSE,3.5,-,N/A,Fog,Fog,150,2013-03-10 08:15:00
3:35 AM,32.0,32.0,100,29.75,0.2,SE,3.5,-,N/A,Fog,Fog,140,2013-03-10 08:35:00
3:55 AM,33.8,33.8,100,29.74,0.2,Calm,Calm,-,N/A,Fog,Fog,0,2013-03-10 08:55:00
4:15 AM,33.8,33.8,100,29.74,0.2,Calm,Calm,-,N/A,Fog,Fog,0,2013-03-10 09:15:00
4:35 AM,33.8,33.8,100,29.74,0.2,ESE,3.5,-,N/A,Fog,Fog,110,2013-03-10 09:35:00
4:55 AM,33.8,33.8,100,29.75,0.2,Calm,Calm,-,N/A,Fog,Fog,0,2013-03-10 09:55:00
5:15 AM,32.0,32.0,100,29.75,0.2,Calm,Calm,-,N/A,Fog,Fog,0,2013-03-10 10:15:00
5:35 AM,32.0,32.0,100,29.75,0.2,Calm,Calm,-,N/A,Rain,Light Rain,0,2013-03-10 10:35:00
5:45 AM,33.8,33.8,100,29.74,0.1,Calm,Calm,-,N/A,Fog,Fog,0,2013-03-10 10:45:00
6:30 AM,33.8,33.8,100,29.72,0.4,NE,5.8,-,N/A,Fog,Fog,50,2013-03-10 11:30:00
7:00 AM,33.8,33.8,100,29.72,0.4,NE,6.9,-,N/A,Fog,Fog,40,2013-03-10 12:00:00
7:45 AM,33.8,33.8,100,29.76,0.4,North,3.5,-,N/A,Fog,Fog,360,2013-03-10 12:45:00
8:33 AM,33.8,33.8,100,29.77,0.5,North,6.9,-,N/A,Fog,Fog,350,2013-03-10 13:33:00
8:45 AM,33.8,33.8,100,29.79,0.6,North,6.9,-,N/A,,Overcast,350,2013-03-10 13:45:00
10:45 AM,33.8,33.8,100,29.84,7.0,North,8.1,-,N/A,Rain,Light Rain,350,2013-03-10 15:45:00
11:50 AM,35.6,35.6,100,29.86,3.0,North,9.2,-,N/A,Rain,Light Rain,360,2013-03-10 16:50:00
12:50 PM,35.6,35.6,100,29.82,10.0,North,17.3,23.0,N/A,,Overcast,10,2013-03-10 17:50:00
1:45 PM,35.6,35.6,100,29.84,10.0,North,11.5,17.3,N/A,,Overcast,10,2013-03-10 18:45:00
2:45 PM,35.6,33.8,93,29.82,10.0,NNE,13.8,20.7,N/A,,Overcast,30,2013-03-10 19:45:00
3:55 PM,35.6,33.8,93,29.80,10.0,NNE,13.8,-,N/A,,Overcast,20,2013-03-10 20:55:00
4:50 PM,35.6,33.8,93,29.82,10.0,NNE,6.9,-,N/A,,Overcast,30,2013-03-10 21:50:00
5:55 PM,33.8,33.8,100,29.80,5.0,NNE,11.5,-,N/A,Rain,Light Rain,20,2013-03-10 22:55:00
6:55 PM,30.2,30.2,100,29.79,5.0,NNE,12.7,-,N/A,Rain,Freezing Rain,30,2013-03-10 23:55:00
7:45 PM,33.8,32.0,93,29.79,4.0,NE,15.0,-,N/A,Snow,Light Snow,40,2013-03-11 00:45:00
9:50 PM,30.2,30.2,100,29.74,2.0,NE,17.3,23.0,N/A,Snow,Light Snow,40,2013-03-11 02:50:00
10:15 PM,32.0,32.0,100,29.74,1.5,NNE,16.1,23.0,N/A,Snow,Light Snow,30,2013-03-11 03:15:00
10:35 PM,32.0,32.0,100,29.75,1.0,NNE,19.6,28.8,N/A,Snow,Light Snow,30,2013-03-11 03:35:00
10:55 PM,30.2,30.2,100,29.75,0.8,NNE,12.7,27.6,N/A,Snow,Snow,30,2013-03-11 03:55:00
11:15 PM,30.2,30.2,100,29.74,0.8,NNE,12.7,-,N/A,Snow,Snow,20,2013-03-11 04:15:00
11:35 PM,30.2,30.2,100,29.73,1.0,NNE,17.3,25.3,N/A,Snow,Light Snow,20,2013-03-11 04:35:00
11:55 PM,30.2,30.2,100,29.72,1.0,North,17.3,21.9,N/A,Snow,Light Snow,10,2013-03-11 04:55:00
12:15 AM,30.2,30.2,100,29.71,1.2,NNE,18.4,24.2,N/A,Snow,Snow,30,2013-03-11 05:15:00
12:35 AM,30.2,30.2,100,29.70,0.5,NNE,11.5,24.2,N/A,Snow,Snow,20,2013-03-11 05:35:00
12:55 AM,30.2,30.2,100,29.69,1.0,NNE,13.8,20.7,N/A,Snow,Snow,20,2013-03-11 05:55:00